Regional Weather Roundup
Issued by NWS

Home | Current Version | Previous Version | Graphics & Text | Print | Product List | Glossary On
Versions: 1 2 3 4 5 6 7 8 9 10 11 12 13 14 15 16 17 18 19 20 21 22 23 24 25 26 27 28 29 30 31 32 33 34 35 36 37 38 39 40 41 42 43 44 45 46 47 48 49 50
000
ASUS43 KMKX 072000
RWRWI

WISCONSIN REGIONAL WEATHER ROUNDUP
NATIONAL WEATHER SERVICE MILWAUKEE/SULLIVAN WI
300 PM CDT TUE JUL 07 2015

NOTE: "FAIR" INDICATES FEW OR NO CLOUDS BELOW 12,000 FEET WITH NO
SIGNIFICANT WEATHER AND/OR OBSTRUCTIONS TO VISIBILITY.

WIZ001-002-006>008-014>016-023>028-072100-
NORTHWEST WISCONSIN

CITY           SKY/WX    TMP DP  RH WIND       PRES   REMARKS
SUPERIOR ARPT  SUNNY     70  48  45 CALM      30.11F
ASHLAND        SUNNY     68  44  42 CALM      30.12F
HAYWARD        MOSUNNY   67  43  41 E5        30.13F
SIREN          MOSUNNY   69  42  37 NE5       30.14S
CUMBERLAND     PTSUNNY   64  45  48 N7        30.13S
RICE LAKE      MOSUNNY   67  47  48 N8        30.14S
CHETEK         PTSUNNY   67  49  51 N5        30.12S
LADYSMITH      MOSUNNY   68  47  45 NE10G18   30.14S
EAU CLAIRE     PTSUNNY   70  47  43 VRB6      30.11F
MENOMONIE      MOSUNNY   69  46  44 N7        30.13S
NEW RICHMOND   PTSUNNY   67  46  47 N6        30.14F
OSCEOLA        PTSUNNY   69  47  46 NE6       30.17S
$$

WIZ003>005-009-010-017-018-072100-
NORTH CENTRAL WISCONSIN

CITY           SKY/WX    TMP DP  RH WIND       PRES   REMARKS
MANITOWISH WTR MOSUNNY   63  46  53 N8        30.12S
ARBOR VITAE    PTSUNNY   64  46  51 NW9G16    30.11S
WOODRUFF       PTSUNNY   64  46  51 NW9G16    30.11S
RHINELANDER    PTSUNNY   66  45  46 VRB5      30.11S
EAGLE RIVER    MOSUNNY   64  43  45 N13G20    30.10S
LAND O LAKES   MOSUNNY   65  45  48 N7G16     30.12S
PHILLIPS       MOSUNNY   64  45  49 NE7G17    30.11S
TOMAHAWK       PTSUNNY   63  46  54 NW7       30.11S
MEDFORD        PTSUNNY   66  47  49 N9        30.10F
MERRILL        PTSUNNY   67  49  52 NE13      30.10S
$$

WIZ029-030-035-036-043>047-072100-
CENTRAL WISCONSIN

CITY           SKY/WX    TMP DP  RH WIND       PRES   REMARKS
WAUSAU         MOSUNNY   67  46  47 N13       30.07S
MOSINEE        PTSUNNY   66  46  48 N10G17    30.10S
MARSHFIELD     PTSUNNY   68  45  43 N12       30.10S
STEVENS POINT  CLOUDY    65  46  50 N10G18    30.09S
WAUPACA        PTSUNNY   69  46  42 N8        30.07F
WAUTOMA        NOT AVBL
WISC RAPIDS    PTSUNNY   69  45  41 N9        30.10S
CAMP DOUGLAS   NOT AVBL
$$

WIZ011>013-019>022-031-037>040-048>050-072100-
NORTHEAST WISCONSIN

CITY           SKY/WX    TMP DP  RH WIND       PRES   REMARKS
ANTIGO         MOSUNNY   65  49  56 N12       30.09S
SHAWANO        PTSUNNY   69  48  46 N13       30.07R
OCONTO         PTSUNNY   66  48  51 N15G21    30.05S
STURGEON BAY   SUNNY     64  48  55 N15G21    30.08R
GREEN BAY      CLOUDY    70  49  47 N12       30.06R
MANITOWOC      NOT AVBL
APPLETON       PTSUNNY   66  45  45 N10       30.07S
CLINTONVILLE   PTSUNNY   68  45  42 N10G17    30.06S
OSHKOSH        MOSUNNY   69  48  47 N13G22    30.06S
$$

WIZ032>034-041-042-053>061-072100-
SOUTHWEST WISCONSIN

CITY           SKY/WX    TMP DP  RH WIND       PRES   REMARKS
LA CROSSE      PTSUNNY   69  46  43 N8G17     30.11S
SPARTA         PTSUNNY   66  44  44 NW12G20   30.11F
VIROQUA        PTSUNNY   65  48  55 N13       30.11S
BOSCOBEL       MOSUNNY   70  50  49 N8        30.09S
PRAIRIE DU CHI MOSUNNY   67  45  44 N8G23     30.09S
PLATTEVILLE    CLOUDY    67  51  55 N9        30.07F
$$

WIZ056-057-062-063-064-067-068-072100-
SOUTH CENTRAL WISCONSIN

CITY           SKY/WX    TMP DP  RH WIND       PRES   REMARKS
REEDSBURG      NOT AVBL
BARABOO/DELLS  PTSUNNY   67  45  45 N7        30.08S
LONE ROCK      NOT AVBL
MINERAL POINT  CLOUDY    68  48  49 N8        30.08F
MADISON        PTSUNNY   67  51  56 N12G18    30.06S
MIDDLETON      NOT AVBL
WATERTOWN      CLOUDY    66  52  60 N8        30.05S
MONROE         PTSUNNY   68  54  60 N13G20    30.05F
JANESVILLE     PTSUNNY   70  52  52 N10       30.04S
$$

WIZ051-052-058>065-066-070>072-072100-
SOUTHEAST WISCONSIN

CITY           SKY/WX    TMP DP  RH WIND       PRES   REMARKS
MILWAUKEE      MOSUNNY   64  49  57 NE14G24   30.05R
WAUKESHA       NOT AVBL
MILWAUKEE/TIMM MOSUNNY   66  46  48 NE9       30.05S
RACINE         SUNNY     65  47  52 NE16G25   30.07R
BURLINGTON     NOT AVBL
KENOSHA        MOSUNNY   66  50  56 NE15G22   30.05R
FOND DU LAC    CLOUDY    68  49  50 NE10G22   30.06S
SHEBOYGAN      PTSUNNY   66  49  54 N9        30.05R
WEST BEND      PTSUNNY   66  46  48 N10       30.05S
JUNEAU         PTSUNNY   66  50  55 N12G17    30.07S
$$

LSZ147-162-072100-
LAKE SUPERIOR

STATION/POSITION TIME  TEMP    WIND        PRES    WAVE
                       AIR SEA DIR/SP/G            HT/PER
                 (UTC) (F)     (DEG/KT/KT) (MB)    (FT/S)
W MID LAKE BUOY  1850   46 39  220/  8/  8 1019.6F   0
DEVILS ISLAND    1900   62     220/  6/  8 1020.0F
PORT WING        1940   65     300/  7/  7 1019.6F
SAXON HARBOR     1900   66        CALM     1020.7S
$$

LMZ867-665-643>646-072100-
LAKE MICHIGAN

STATION/POSITION TIME  TEMP    WIND        PRES    WAVE
                       AIR SEA DIR/SP/G            HT/PER
                 (UTC) (F)     (DEG/KT/KT) (MB)    (FT/S)
CHAMBERS ISLAND  1900   63     330/ 12/ 16 1017.6S
S GREEN BAY BUOY 1900   64 68  360/ 14/ 17 1018.7
N MID LAKE BUOY  1850   56 53  310/ 12/ 14 1016.7R   2/ 3
NORTHPORT PIER   1900   60     340/ 15/ 18 1017.3S
SISTER BAY       1814   63     360/ 20/ 24   N/A
ALGOMA LAKESHORE 1841          330/ 15/ 20   N/A
KEWAUNEE LAKESHO 1900   62      10/  4/ 12 1016.8S
SHEBOYGAN LAKESH 1900   57      40/ 13/ 14 1017.8R
PORT WASHINGTON  1900   61      60/  7/ 12 1018.3
ATWATER BUOY     1900   59 59   30/ 14/ 19 1018.4R
MILWAUKEE LAKESH 1900   58      30/ 14/ 16   N/A
KENOSHA   LAKESH 1900   59      20/ 14/ 19 1016.9R
$$

TC  - TEMPERATURE IN CELSIUS
VSB - VISIBILITY IN STATUTE MILES
WCI - WIND CHILL INDEX
HX  - HEAT INDEX



USA.gov is the U.S. government's official web portal to all federal, state and local government web resources and services.